Regional Weather Roundup
Issued by NWS

Home | Current Version | Previous Version | Text Only | Print | Product List | Glossary Off
Versions: 1 2 3 4 5 6 7 8 9 10 11 12 13 14 15 16 17 18 19 20 21 22 23 24 25 26 27 28 29 30 31 32 33 34 35 36 37 38 39 40 41 42 43 44 45 46 47 48 49 50

000
ASUS44 KOUN 040300
RWROK

WEATHER ROUNDUP FOR OKLAHOMA
NATIONAL WEATHER SERVICE NORMAN OK
1000 PM CDT FRI JUL 03 2015

NOTE: "FAIR" INDICATES FEW OR NO CLOUDS BELOW 12,000 FEET WITH NO
      SIGNIFICANT WEATHER AND/OR OBSTRUCTIONS TO VISIBILITY.

OKZ001>007-009>012-014-015-017-040400-
NORTHWEST OKLAHOMA AND THE PANHANDLE

CITY           SKY/WX    TMP DP  RH WIND       PRES   REMARKS
GAGE           CLEAR     71  67  87 S6        29.97R
GUYMON         CLEAR     69  61  75 SE5       30.02R
$$

OKZ016-021>023-033>039-044-045-040400-
SOUTHWEST OKLAHOMA

CITY           SKY/WX    TMP DP  RH WIND       PRES   REMARKS
LAWTON/REGL    CLOUDY    80  66  62 E6        29.92F
FREDERICK      LGT RAIN  77  71  82 SW8       29.87F
CLINTON        PTCLDY    75  68  78 S6        29.97S
HOBART         MOCLDY    72  66  81 S9        29.94R
$$

OKZ018>020-024>031-040400-
CENTRAL OKLAHOMA

CITY           SKY/WX    TMP DP  RH WIND       PRES   REMARKS
OKLAHOMA CITY  MOCLDY    76  73  91 SW7       29.93R
OKC/WILEY POST PTCLDY    79  69  71 CALM      29.93R
STILLWATER     CLEAR     77  66  68 NE7       29.92R
GUTHRIE        CLEAR     77  68  73 CALM      29.93R
$$

OKZ008-013-054>072-040400-
NORTHEAST OKLAHOMA

CITY           SKY/WX    TMP DP  RH WIND       PRES   REMARKS
TULSA          PTCLDY    80  71  74 E6        29.90R
TULSA/JONES    CLEAR     80  69  69 NE7       29.90R
PONCA CITY     CLEAR     77  65  66 NE6       29.93R
BARTLESVILLE   MOCLDY    77  69  76 CALM      29.93R
MUSKOGEE       PTCLDY    75  72  90 S5        29.90S
$$

OKZ032-040>043-046>053-073>077-040400-
SOUTH CENTRAL/SOUTHEAST OKLAHOMA

CITY           SKY/WX    TMP DP  RH WIND       PRES   REMARKS
MCALESTER      PTCLDY    71  67  87 CALM      29.91R
$$



USA.gov is the U.S. government's official web portal to all federal, state and local government web resources and services.